QPF
0.00 0.00 0.00 0.00 0.00 0.00 0.00 0.00 0.00 0.00 0.00 0.00 0.00 0.00 0.00 0.00 0.00 0.00 0.00 0.00 0.00 0.01 0.00 0.00 0.00 0.01 0.01 0.01 0.03 0.04 0.05 0.06 0.06 0.04 0.03 0.03 0.04 0.04 0.03 0.03 0.03 0.05 0.07
0.00 0.00 0.00 0.00 0.00 0.00 0.00 0.00 0.00 0.00 0.00 0.00 0.00 0.00 0.00 0.00 0.00 0.00 0.00 0.00 0.01 0.01 0.01 0.01 0.00 0.00 0.00 0.01 0.02 0.04 0.06 0.05 0.04 0.04 0.04 0.04 0.04 0.04 0.05 0.05 0.04 0.04 0.06
0.00 0.00 0.00 0.00 0.00 0.00 0.00 0.00 0.00 0.00 0.00 0.00 0.00 0.00 0.00 0.00 0.00 0.00 0.00 0.00 0.00 0.00 0.00 0.00 0.00 0.00 0.01 0.01 0.02 0.04 0.06 0.05 0.04 0.04 0.04 0.05 0.06 0.04 0.04 0.05 0.05 0.04 0.05
0.00 0.00 0.00 0.00 0.00 0.00 0.00 0.00 0.00 0.00 0.00 0.00 0.00 0.00 0.00 0.00 0.00 0.00 0.00 0.00 0.00 0.00 0.00 0.00 0.00 0.00 0.00 0.00 0.01 0.03 0.05 0.04 0.03 0.05 0.05 0.04 0.07 0.05 0.04 0.04 0.03 0.04 0.04
0.00 0.00 0.00 0.00 0.00 0.00 0.00 0.00 0.00 0.00 0.00 0.00 0.00 0.00 0.00 0.00 0.00 0.00 0.00 0.00 0.00 0.00 0.00 0.00 0.00 0.00 0.00 0.00 0.00 0.01 0.04 0.04 0.03 0.04 0.04 0.04 0.05 0.06 0.04 0.02 0.02 0.02 0.03
0.00 0.00 0.00 0.00 0.00 0.00 0.00 0.00 0.00 0.00 0.00 0.00 0.00 0.00 0.00 0.00 0.00 0.00 0.00 0.00 0.00 0.00 0.00 0.00 0.00 0.00 0.00 0.00 0.00 0.00 0.01 0.02 0.02 0.03 0.03 0.03 0.03 0.03 0.02 0.02 0.01 0.01 0.02
0.00 0.00 0.00 0.00 0.00 0.00 0.00 0.00 0.00 0.00 0.00 0.00 0.00 0.00 0.00 0.00 0.00 0.00 0.00 0.00 0.00 0.00 0.00 0.00 0.00 0.00 0.00 0.00 0.00 0.00 0.00 0.00 0.01 0.02 0.03 0.03 0.02 0.01 0.01 0.01 0.01 0.01 0.01
0.00 0.00 0.00 0.00 0.00 0.00 0.00 0.00 0.00 0.00 0.00 0.00 0.00 0.00 0.00 0.00 0.00 0.00 0.00 0.00 0.00 0.00 0.00 0.00 0.00 0.00 0.00 0.00 0.00 0.00 0.00 0.00 0.00 0.01 0.01 0.02 0.01 0.01 0.01 0.01 0.01 0.01 0.01
0.00 0.00 0.00 0.00 0.00 0.00 0.00 0.00 0.00 0.00 0.00 0.00 0.00 0.00 0.00 0.00 0.00 0.00 0.00 0.00 0.00 0.00 0.00 0.00 0.00 0.00 0.00 0.00 0.00 0.00 0.00 0.00 0.00 0.00 0.00 0.00 0.00 0.00 0.00 0.00 0.00 0.01 0.01
0.00 0.00 0.00 0.00 0.00 0.00 0.00 0.00 0.00 0.00 0.00 0.00 0.00 0.00 0.00 0.00 0.00 0.00 0.00 0.00 0.00 0.00 0.00 0.00 0.00 0.00 0.00 0.00 0.00 0.00 0.00 0.00 0.00 0.00 0.00 0.00 0.00 0.00 0.01 0.01 0.00 0.00 0.01
0.00 0.00 0.00 0.00 0.00 0.00 0.00 0.00 0.00 0.00 0.00 0.00 0.00 0.00 0.00 0.00 0.00 0.00 0.00 0.00 0.00 0.00 0.00 0.00 0.00 0.00 0.00 0.00 0.00 0.00 0.00 0.00 0.00 0.00 0.00 0.00 0.00 0.00 0.01 0.01 0.01 0.01 0.01
0.00 0.00 0.00 0.00 0.00 0.00 0.00 0.00 0.00 0.00 0.00 0.00 0.00 0.00 0.00 0.00 0.00 0.00 0.00 0.00 0.00 0.00 0.00 0.00 0.00 0.00 0.00 0.00 0.00 0.00 0.00 0.00 0.00 0.00 0.00 0.00 0.00 0.00 0.01 0.01 0.01 0.01 0.01
0.00 0.00 0.00 0.00 0.00 0.00 0.00 0.00 0.00 0.00 0.00 0.00 0.00 0.00 0.01 0.01 0.01 0.01 0.01 0.00 0.00 0.00 0.00 0.00 0.00 0.00 0.00 0.00 0.00 0.00 0.00 0.00 0.00 0.00 0.00 0.00 0.00 0.00 0.00 0.01 0.01 0.01 0.00
0.00 0.00 0.00 0.00 0.00 0.00 0.00 0.00 0.00 0.00 0.00 0.00 0.01 0.01 0.01 0.01 0.01 0.01 0.01 0.01 0.00 0.00 0.00 0.00 0.00 0.00 0.00 0.00 0.00 0.00 0.00 0.00 0.00 0.00 0.00 0.00 0.00 0.00 0.00 0.00 0.00 0.00 0.00
0.00 0.00 0.00 0.00 0.00 0.00 0.00 0.00 0.00 0.00 0.00 0.00 0.01 0.01 0.01 0.01 0.01 0.01 0.01 0.01 0.01 0.00 0.01 0.01 0.00 0.00 0.00 0.00 0.00 0.00 0.00 0.00 0.00 0.00 0.00 0.00 0.00 0.00 0.00 0.00 0.00 0.00 0.00
0.00 0.00 0.00 0.00 0.00 0.00 0.00 0.00 0.00 0.00 0.01 0.01 0.01 0.01 0.01 0.01 0.01 0.01 0.01 0.01 0.01 0.01 0.01 0.01 0.00 0.00 0.00 0.00 0.00 0.00 0.00 0.00 0.00 0.00 0.00 0.00 0.00 0.00 0.00 0.00 0.00 0.00 0.00
0.00 0.00 0.00 0.00 0.00 0.00 0.00 0.00 0.00 0.01 0.01 0.01 0.01 0.01 0.01 0.02 0.02 0.01 0.01 0.01 0.01 0.01 0.01 0.01 0.00 0.00 0.00 0.00 0.00 0.00 0.00 0.00 0.00 0.00 0.00 0.00 0.00 0.00 0.00 0.00 0.00 0.00 0.00
0.00 0.00 0.00 0.00 0.00 0.00 0.00 0.01 0.01 0.01 0.01 0.01 0.01 0.02 0.02 0.02 0.02 0.02 0.02 0.02 0.01 0.01 0.01 0.01 0.01 0.01 0.00 0.00 0.00 0.00 0.00 0.00 0.00 0.00 0.00 0.00 0.00 0.00 0.00 0.00 0.00 0.00 0.00
0.00 0.00 0.00 0.00 0.00 0.00 0.01 0.01 0.01 0.01 0.01 0.01 0.01 0.02 0.03 0.03 0.02 0.02 0.02 0.02 0.02 0.02 0.01 0.01 0.02 0.02 0.01 0.01 0.00 0.00 0.00 0.00 0.00 0.00 0.00 0.00 0.00 0.00 0.00 0.00 0.00 0.00 0.00
0.00 0.00 0.00 0.00 0.00 0.00 0.01 0.01 0.01 0.01 0.01 0.01 0.01 0.02 0.04 0.04 0.03 0.03 0.03 0.03 0.03 0.03 0.03 0.02 0.03 0.02 0.02 0.01 0.01 0.01 0.00 0.00 0.00 0.00 0.00 0.00 0.00 0.00 0.00 0.00 0.00 0.00 0.00
0.00 0.00 0.00 0.00 0.00 0.00 0.00 0.01 0.01 0.01 0.01 0.01 0.02 0.03 0.04 0.05 0.05 0.04 0.04 0.05 0.05 0.05 0.05 0.04 0.04 0.04 0.03 0.02 0.01 0.01 0.01 0.00 0.00 0.00 0.00 0.00 0.00 0.00 0.00 0.00 0.00 0.00 0.00
0.00 0.00 0.00 0.00 0.00 0.00 0.00 0.01 0.01 0.01 0.01 0.02 0.02 0.03 0.04 0.06 0.07 0.07 0.06 0.06 0.07 0.08 0.08 0.07 0.06 0.06 0.04 0.03 0.02 0.01 0.01 0.01 0.00 0.00 0.00 0.00 0.00 0.00 0.00 0.00 0.00 0.00 0.00
0.01 0.01 0.01 0.00 0.00 0.00 0.00 0.01 0.01 0.01 0.02 0.02 0.02 0.02 0.04 0.06 0.07 0.08 0.08 0.08 0.08 0.09 0.08 0.08 0.07 0.06 0.06 0.04 0.02 0.01 0.01 0.01 0.01 0.01 0.00 0.00 0.00 0.00 0.00 0.00 0.00 0.00 0.00
0.01 0.01 0.00 0.00 0.00 0.00 0.00 0.00 0.01 0.02 0.02 0.02 0.03 0.03 0.03 0.04 0.07 0.08 0.09 0.09 0.09 0.09 0.09 0.08 0.07 0.06 0.06 0.05 0.04 0.02 0.02 0.02 0.02 0.01 0.01 0.01 0.01 0.01 0.01 0.01 0.01 0.01 0.00
0.00 0.00 0.00 0.00 0.00 0.00 0.00 0.00 0.01 0.02 0.02 0.03 0.03 0.03 0.03 0.04 0.05 0.07 0.09 0.09 0.09 0.09 0.09 0.09 0.08 0.07 0.07 0.06 0.06 0.05 0.04 0.04 0.03 0.03 0.02 0.02 0.02 0.01 0.01 0.01 0.00 0.00 0.00
0.00 0.00 0.00 0.00 0.00 0.00 0.00 0.01 0.01 0.01 0.02 0.03 0.03 0.03 0.04 0.04 0.05 0.06 0.07 0.08 0.08 0.08 0.09 0.10 0.10 0.10 0.09 0.08 0.08 0.07 0.07 0.05 0.05 0.04 0.03 0.02 0.02 0.01 0.00 0.00 0.00 0.00 0.00
MSLP
1012.03 1012.13 1012.28 1012.46 1012.63 1012.79 1012.91 1013.00 1013.05 1013.08 1013.09 1013.08 1013.07 1013.04 1013.00 1012.95 1012.88 1012.78 1012.67 1012.54 1012.40 1012.27 1012.15 1012.05 1011.99 1011.96 1011.97 1012.02 1012.09 1012.19 1012.30 1012.41 1012.51 1012.60 1012.66 1012.71 1012.76 1012.80 1012.86 1012.95 1013.07 1013.24 1013.45
1011.90 1011.92 1012.02 1012.16 1012.33 1012.50 1012.65 1012.78 1012.88 1012.95 1013.00 1013.04 1013.05 1013.05 1013.03 1013.00 1012.95 1012.88 1012.79 1012.69 1012.57 1012.46 1012.36 1012.28 1012.22 1012.20 1012.21 1012.26 1012.33 1012.44 1012.55 1012.67 1012.79 1012.89 1012.97 1013.04 1013.11 1013.17 1013.24 1013.33 1013.45 1013.60 1013.79
1011.85 1011.80 1011.83 1011.93 1012.08 1012.24 1012.41 1012.57 1012.71 1012.82 1012.92 1012.99 1013.04 1013.08 1013.09 1013.08 1013.06 1013.01 1012.94 1012.86 1012.76 1012.66 1012.57 1012.49 1012.44 1012.42 1012.43 1012.48 1012.56 1012.66 1012.79 1012.92 1013.05 1013.16 1013.27 1013.36 1013.44 1013.52 1013.60 1013.69 1013.81 1013.95 1014.11
1011.93 1011.81 1011.78 1011.83 1011.93 1012.06 1012.22 1012.38 1012.53 1012.67 1012.80 1012.91 1013.00 1013.07 1013.12 1013.14 1013.14 1013.12 1013.07 1013.00 1012.92 1012.82 1012.74 1012.66 1012.61 1012.59 1012.60 1012.65 1012.74 1012.85 1012.98 1013.12 1013.26 1013.39 1013.51 1013.62 1013.71 1013.80 1013.89 1013.98 1014.08 1014.21 1014.35
1012.16 1011.98 1011.89 1011.86 1011.89 1011.97 1012.08 1012.20 1012.34 1012.47 1012.61 1012.74 1012.86 1012.96 1013.05 1013.11 1013.14 1013.14 1013.11 1013.06 1012.98 1012.90 1012.82 1012.76 1012.71 1012.70 1012.72 1012.78 1012.86 1012.98 1013.11 1013.26 1013.40 1013.54 1013.66 1013.77 1013.87 1013.97 1014.05 1014.14 1014.24 1014.34 1014.46
1012.56 1012.33 1012.16 1012.05 1011.99 1011.98 1012.00 1012.05 1012.13 1012.23 1012.34 1012.47 1012.60 1012.72 1012.83 1012.92 1012.98 1013.01 1013.01 1012.98 1012.93 1012.86 1012.80 1012.76 1012.73 1012.73 1012.76 1012.83 1012.93 1013.05 1013.19 1013.33 1013.46 1013.60 1013.71 1013.82 1013.92 1014.00 1014.09 1014.17 1014.26 1014.35 1014.45
1013.10 1012.82 1012.58 1012.38 1012.22 1012.09 1012.00 1011.95 1011.93 1011.96 1012.02 1012.11 1012.22 1012.35 1012.47 1012.58 1012.66 1012.72 1012.75 1012.74 1012.72 1012.69 1012.66 1012.65 1012.65 1012.68 1012.74 1012.83 1012.94 1013.06 1013.20 1013.33 1013.46 1013.57 1013.68 1013.77 1013.86 1013.93 1014.01 1014.09 1014.17 1014.26 1014.36
1013.72 1013.41 1013.11 1012.82 1012.55 1012.29 1012.08 1011.90 1011.77 1011.70 1011.68 1011.71 1011.78 1011.88 1011.99 1012.10 1012.20 1012.28 1012.34 1012.37 1012.38 1012.40 1012.41 1012.44 1012.48 1012.55 1012.65 1012.76 1012.89 1013.02 1013.16 1013.28 1013.39 1013.49 1013.58 1013.65 1013.72 1013.79 1013.87 1013.95 1014.03 1014.13 1014.24
1014.35 1014.02 1013.67 1013.31 1012.94 1012.58 1012.24 1011.93 1011.68 1011.50 1011.38 1011.33 1011.34 1011.40 1011.48 1011.58 1011.67 1011.76 1011.83 1011.89 1011.94 1012.00 1012.06 1012.13 1012.23 1012.35 1012.48 1012.63 1012.78 1012.92 1013.06 1013.17 1013.27 1013.36 1013.43 1013.50 1013.56 1013.63 1013.71 1013.80 1013.91 1014.02 1014.14
1014.92 1014.59 1014.21 1013.80 1013.36 1012.91 1012.47 1012.06 1011.70 1011.41 1011.20 1011.07 1011.00 1010.99 1011.03 1011.08 1011.16 1011.23 1011.30 1011.37 1011.45 1011.53 1011.64 1011.76 1011.90 1012.06 1012.23 1012.41 1012.59 1012.75 1012.89 1013.01 1013.11 1013.19 1013.26 1013.33 1013.40 1013.49 1013.59 1013.70 1013.83 1013.98 1014.13
1015.36 1015.04 1014.66 1014.23 1013.75 1013.25 1012.74 1012.26 1011.83 1011.46 1011.17 1010.96 1010.81 1010.73 1010.70 1010.70 1010.72 1010.76 1010.81 1010.87 1010.94 1011.04 1011.16 1011.31 1011.48 1011.68 1011.88 1012.09 1012.29 1012.47 1012.62 1012.76 1012.87 1012.96 1013.05 1013.14 1013.25 1013.37 1013.51 1013.66 1013.83 1014.01 1014.19
1015.64 1015.34 1014.98 1014.55 1014.07 1013.56 1013.03 1012.53 1012.06 1011.64 1011.29 1011.01 1010.80 1010.65 1010.54 1010.46 1010.42 1010.39 1010.38 1010.40 1010.44 1010.52 1010.63 1010.78 1010.96 1011.17 1011.40 1011.63 1011.85 1012.05 1012.23 1012.39 1012.53 1012.66 1012.79 1012.93 1013.08 1013.26 1013.45 1013.66 1013.88 1014.11 1014.32
1015.73 1015.46 1015.13 1014.73 1014.28 1013.79 1013.29 1012.79 1012.32 1011.90 1011.52 1011.20 1010.93 1010.71 1010.52 1010.36 1010.23 1010.11 1010.02 1009.97 1009.95 1009.97 1010.05 1010.17 1010.34 1010.54 1010.77 1011.00 1011.24 1011.47 1011.68 1011.88 1012.06 1012.25 1012.44 1012.65 1012.88 1013.13 1013.39 1013.67 1013.95 1014.22 1014.47
1015.64 1015.41 1015.11 1014.76 1014.35 1013.91 1013.46 1013.00 1012.57 1012.16 1011.78 1011.45 1011.14 1010.86 1010.59 1010.35 1010.12 1009.90 1009.71 1009.56 1009.45 1009.40 1009.41 1009.48 1009.60 1009.78 1009.99 1010.22 1010.46 1010.71 1010.96 1011.21 1011.46 1011.71 1011.98 1012.28 1012.59 1012.93 1013.27 1013.62 1013.97 1014.29 1014.58
1015.41 1015.20 1014.93 1014.62 1014.27 1013.89 1013.49 1013.10 1012.72 1012.35 1011.99 1011.65 1011.32 1011.00 1010.67 1010.34 1010.01 1009.69 1009.40 1009.14 1008.93 1008.79 1008.71 1008.71 1008.77 1008.90 1009.08 1009.30 1009.55 1009.81 1010.10 1010.39 1010.71 1011.04 1011.40 1011.78 1012.19 1012.62 1013.05 1013.48 1013.88 1014.26 1014.59
1015.07 1014.86 1014.61 1014.33 1014.03 1013.70 1013.37 1013.03 1012.70 1012.38 1012.05 1011.73 1011.39 1011.03 1010.65 1010.25 1009.84 1009.44 1009.04 1008.68 1008.38 1008.14 1007.97 1007.89 1007.88 1007.95 1008.09 1008.29 1008.53 1008.81 1009.13 1009.47 1009.85 1010.26 1010.70 1011.17 1011.67 1012.18 1012.69 1013.19 1013.67 1014.10 1014.47
1014.66 1014.44 1014.20 1013.93 1013.65 1013.36 1013.07 1012.78 1012.50 1012.21 1011.91 1011.60 1011.26 1010.88 1010.47 1010.03 1009.56 1009.09 1008.62 1008.18 1007.79 1007.46 1007.22 1007.06 1006.98 1007.00 1007.09 1007.26 1007.49 1007.78 1008.11 1008.50 1008.93 1009.40 1009.91 1010.46 1011.03 1011.62 1012.20 1012.77 1013.30 1013.79 1014.21
1014.20 1013.97 1013.71 1013.44 1013.16 1012.88 1012.61 1012.35 1012.09 1011.83 1011.55 1011.25 1010.92 1010.54 1010.11 1009.65 1009.15 1008.63 1008.12 1007.62 1007.17 1006.79 1006.48 1006.26 1006.13 1006.09 1006.14 1006.28 1006.49 1006.77 1007.12 1007.53 1007.99 1008.51 1009.08 1009.68 1010.32 1010.96 1011.61 1012.23 1012.81 1013.35 1013.82
1013.71 1013.46 1013.18 1012.88 1012.59 1012.30 1012.03 1011.76 1011.51 1011.25 1010.98 1010.69 1010.36 1009.99 1009.56 1009.10 1008.60 1008.07 1007.54 1007.03 1006.56 1006.14 1005.79 1005.53 1005.36 1005.28 1005.29 1005.39 1005.57 1005.84 1006.19 1006.61 1007.09 1007.64 1008.24 1008.89 1009.57 1010.26 1010.94 1011.61 1012.24 1012.81 1013.33
1013.18 1012.90 1012.59 1012.27 1011.95 1011.64 1011.34 1011.05 1010.78 1010.51 1010.24 1009.95 1009.62 1009.26 1008.86 1008.41 1007.93 1007.43 1006.92 1006.42 1005.95 1005.53 1005.16 1004.88 1004.67 1004.56 1004.53 1004.60 1004.76 1005.01 1005.35 1005.76 1006.26 1006.82 1007.45 1008.12 1008.83 1009.55 1010.26 1010.96 1011.62 1012.24 1012.79
1012.60 1012.30 1011.96 1011.61 1011.25 1010.90 1010.57 1010.25 1009.95 1009.66 1009.37 1009.07 1008.75 1008.41 1008.03 1007.62 1007.18 1006.72 1006.25 1005.79 1005.34 1004.94 1004.58 1004.29 1004.07 1003.93 1003.87 1003.91 1004.04 1004.27 1004.59 1004.99 1005.49 1006.06 1006.70 1007.40 1008.12 1008.87 1009.61 1010.33 1011.02 1011.66 1012.24
1011.93 1011.61 1011.26 1010.88 1010.49 1010.10 1009.73 1009.37 1009.04 1008.72 1008.41 1008.10 1007.79 1007.46 1007.12 1006.75 1006.36 1005.96 1005.55 1005.13 1004.73 1004.35 1004.02 1003.73 1003.50 1003.34 1003.26 1003.27 1003.38 1003.58 1003.88 1004.29 1004.78 1005.36 1006.02 1006.73 1007.48 1008.25 1009.02 1009.76 1010.47 1011.13 1011.74
1011.16 1010.84 1010.47 1010.07 1009.65 1009.24 1008.83 1008.44 1008.07 1007.72 1007.39 1007.07 1006.77 1006.46 1006.15 1005.83 1005.50 1005.15 1004.80 1004.44 1004.09 1003.75 1003.43 1003.15 1002.92 1002.75 1002.65 1002.64 1002.73 1002.92 1003.21 1003.62 1004.12 1004.72 1005.40 1006.14 1006.91 1007.71 1008.50 1009.27 1010.00 1010.68 1011.30
1010.28 1009.95 1009.58 1009.18 1008.75 1008.31 1007.88 1007.46 1007.07 1006.69 1006.35 1006.02 1005.72 1005.43 1005.15 1004.88 1004.60 1004.31 1004.01 1003.71 1003.40 1003.09 1002.80 1002.53 1002.29 1002.11 1002.01 1001.98 1002.06 1002.25 1002.55 1002.96 1003.49 1004.12 1004.83 1005.60 1006.42 1007.25 1008.08 1008.87 1009.62 1010.32 1010.94
1009.30 1008.98 1008.61 1008.21 1007.78 1007.34 1006.90 1006.46 1006.05 1005.66 1005.30 1004.97 1004.68 1004.41 1004.16 1003.92 1003.68 1003.44 1003.19 1002.93 1002.66 1002.38 1002.11 1001.85 1001.62 1001.44 1001.32 1001.30 1001.38 1001.57 1001.89 1002.33 1002.89 1003.56 1004.31 1005.14 1006.00 1006.87 1007.73 1008.56 1009.33 1010.04 1010.67
1008.25 1007.94 1007.59 1007.20 1006.78 1006.34 1005.90 1005.46 1005.04 1004.64 1004.27 1003.94 1003.65 1003.39 1003.16 1002.95 1002.75 1002.55 1002.34 1002.12 1001.88 1001.63 1001.37 1001.13 1000.91 1000.73 1000.63 1000.61 1000.70 1000.92 1001.26 1001.74 1002.34 1003.05 1003.86 1004.73 1005.64 1006.56 1007.46 1008.32 1009.11 1009.83 1010.46
Thickness
5721 5718 5715 5713 5711 5708 5705 5703 5700 5699 5697 5694 5691 5689 5688 5685 5683 5679 5678 5676 5675 5676 5676 5676 5675 5676 5678 5679 5680 5682 5684 5686 5685 5686 5689 5691 5694 5698 5699 5702 5704 5706 5707
5719 5717 5715 5713 5710 5708 5706 5703 5702 5700 5699 5696 5693 5690 5689 5686 5684 5681 5678 5677 5676 5676 5676 5676 5675 5675 5675 5677 5677 5680 5681 5683 5684 5683 5685 5687 5689 5692 5694 5697 5699 5701 5703
5716 5715 5713 5712 5710 5708 5707 5704 5702 5700 5698 5697 5694 5691 5690 5687 5685 5682 5680 5679 5678 5677 5677 5676 5676 5675 5674 5675 5675 5677 5678 5680 5680 5681 5681 5682 5684 5687 5688 5690 5693 5695 5697
5714 5712 5710 5710 5708 5707 5706 5704 5702 5700 5697 5696 5695 5693 5691 5689 5686 5684 5682 5680 5679 5678 5677 5676 5676 5675 5674 5674 5674 5675 5675 5676 5677 5678 5678 5679 5680 5682 5684 5685 5686 5688 5690
5711 5708 5707 5707 5706 5704 5703 5700 5699 5698 5696 5695 5693 5692 5691 5688 5687 5685 5683 5681 5680 5679 5678 5677 5675 5673 5671 5671 5672 5673 5672 5673 5674 5674 5675 5675 5676 5676 5678 5680 5681 5683 5684
5706 5704 5704 5702 5702 5700 5699 5698 5697 5696 5695 5693 5691 5691 5689 5688 5685 5680 5679 5680 5680 5679 5678 5677 5676 5672 5669 5666 5666 5666 5667 5670 5672 5671 5672 5672 5673 5674 5674 5675 5676 5677 5677
5701 5700 5698 5697 5696 5696 5695 5694 5692 5692 5692 5690 5689 5688 5686 5686 5682 5678 5675 5676 5678 5679 5679 5677 5676 5674 5670 5671 5667 5663 5664 5664 5665 5669 5670 5670 5670 5670 5669 5670 5671 5671 5672
5694 5692 5691 5690 5690 5690 5690 5689 5689 5689 5689 5687 5686 5686 5684 5684 5680 5677 5674 5674 5676 5677 5677 5676 5675 5674 5671 5670 5669 5667 5667 5666 5664 5664 5667 5668 5667 5667 5666 5666 5667 5666 5667
5684 5683 5684 5684 5683 5683 5684 5684 5685 5685 5685 5685 5684 5683 5682 5683 5679 5675 5671 5673 5675 5676 5676 5675 5674 5673 5670 5666 5666 5666 5665 5664 5661 5659 5659 5660 5659 5659 5660 5660 5660 5660 5661
5674 5673 5674 5675 5675 5675 5676 5677 5679 5679 5679 5679 5680 5680 5680 5680 5678 5673 5668 5672 5673 5674 5674 5674 5669 5669 5667 5663 5663 5664 5662 5663 5661 5658 5655 5654 5655 5654 5652 5655 5657 5657 5659
5663 5663 5663 5664 5664 5666 5666 5667 5669 5670 5671 5672 5674 5675 5675 5675 5674 5670 5666 5667 5670 5671 5671 5671 5671 5665 5662 5659 5659 5662 5661 5660 5659 5658 5656 5655 5653 5653 5651 5651 5653 5653 5654
5652 5651 5651 5652 5652 5654 5654 5655 5657 5658 5659 5661 5664 5666 5668 5669 5667 5666 5662 5661 5663 5665 5666 5668 5668 5663 5659 5656 5655 5656 5655 5652 5654 5654 5653 5651 5650 5650 5649 5648 5647 5647 5647
5642 5641 5640 5640 5640 5639 5640 5641 5643 5644 5645 5648 5651 5654 5657 5659 5660 5656 5654 5654 5653 5655 5660 5661 5659 5656 5653 5651 5650 5649 5647 5648 5650 5649 5649 5649 5649 5648 5645 5643 5642 5640 5639
5630 5628 5628 5627 5626 5625 5624 5625 5625 5626 5627 5630 5633 5637 5642 5645 5647 5648 5647 5646 5644 5645 5647 5649 5647 5646 5645 5648 5647 5644 5644 5647 5647 5647 5647 5646 5645 5642 5639 5638 5636 5634 5633
5617 5615 5613 5611 5610 5609 5609 5607 5606 5607 5607 5607 5613 5617 5622 5628 5632 5630 5632 5635 5638 5640 5640 5640 5641 5641 5641 5642 5644 5644 5643 5643 5641 5643 5642 5641 5638 5636 5634 5633 5632 5631 5630
5603 5600 5598 5595 5593 5592 5591 5592 5591 5589 5589 5589 5591 5594 5602 5607 5609 5612 5615 5618 5621 5624 5625 5631 5635 5638 5639 5640 5640 5640 5640 5640 5639 5638 5637 5635 5633 5631 5629 5627 5626 5626 5625
5588 5586 5582 5580 5577 5575 5574 5574 5576 5577 5575 5575 5577 5579 5583 5588 5592 5595 5599 5602 5606 5609 5614 5624 5629 5632 5634 5635 5635 5635 5635 5635 5634 5633 5632 5630 5628 5627 5624 5622 5620 5620 5619
5575 5571 5566 5564 5561 5560 5558 5557 5557 5558 5561 5564 5565 5567 5569 5572 5576 5581 5583 5586 5595 5600 5608 5615 5621 5624 5626 5627 5629 5629 5629 5628 5627 5627 5626 5625 5623 5621 5619 5617 5615 5614 5613
5561 5557 5553 5549 5546 5544 5543 5541 5541 5541 5543 5547 5551 5555 5556 5558 5562 5566 5569 5576 5585 5592 5598 5604 5610 5614 5617 5619 5620 5621 5621 5621 5621 5620 5620 5618 5617 5615 5613 5612 5610 5604 5604
5547 5541 5535 5533 5532 5530 5528 5527 5526 5526 5527 5530 5533 5537 5541 5543 5550 5555 5558 5564 5572 5580 5586 5592 5598 5602 5606 5609 5611 5612 5613 5614 5614 5614 5613 5612 5611 5609 5608 5605 5603 5600 5597
5534 5530 5524 5520 5519 5516 5514 5512 5511 5511 5512 5515 5518 5521 5520 5524 5532 5540 5545 5551 5558 5565 5572 5579 5585 5590 5595 5598 5600 5603 5605 5607 5607 5607 5606 5605 5603 5602 5601 5598 5596 5593 5591
5520 5517 5513 5509 5506 5503 5500 5498 5498 5497 5498 5500 5504 5507 5508 5511 5518 5525 5531 5538 5544 5550 5557 5564 5571 5577 5583 5587 5591 5594 5597 5600 5601 5600 5599 5597 5596 5594 5593 5591 5588 5586 5583
5505 5503 5500 5497 5493 5490 5488 5487 5486 5486 5486 5488 5490 5493 5496 5500 5504 5510 5516 5523 5530 5536 5542 5549 5558 5565 5570 5576 5581 5585 5589 5592 5594 5594 5592 5590 5588 5586 5585 5583 5581 5578 5576
5493 5489 5486 5484 5481 5479 5477 5476 5475 5474 5474 5476 5478 5480 5483 5486 5491 5496 5502 5509 5516 5523 5529 5536 5544 5552 5558 5563 5570 5575 5580 5583 5584 5584 5584 5583 5581 5579 5577 5575 5573 5570 5567
5482 5478 5475 5472 5470 5468 5466 5465 5464 5464 5464 5465 5467 5469 5471 5474 5479 5484 5489 5496 5503 5510 5516 5524 5532 5540 5547 5553 5559 5565 5569 5571 5574 5575 5574 5573 5572 5571 5569 5567 5564 5561 5558
5472 5468 5465 5463 5461 5459 5457 5456 5456 5456 5455 5456 5457 5459 5460 5463 5467 5472 5477 5484 5491 5498 5505 5513 5521 5528 5535 5542 5549 5553 5556 5559 5561 5563 5565 5564 5563 5562 5560 5558 5555 5552 5549